[[{"header":{"parameterUnit":"m.s-1","parameterCategory":1,"la1":30.2991,"la2":30.254,"lo1":-89.0895,"lo2":-89.0444,"dy":0.0017,"dx":0.0017,"nx":28,"ny":28,"refTime":"2024-04-27T09:00:00:Z","depth":0,"parameterNumber":2,"parameterNumberName":"U-component_of_WINDS"},"data":[0,0,0,0,0,0,0,0,0,0,0,0,0,0,0,0,0,0,0,0,0,0,0,0,0,0,0,0,0,0,0,0,0,0,0,0,0,0,0,0,0,0,0,0,0,0,0,0,0,0,0,0,0,0,0,0,0,0,-8.4517,-8.4518,0,-8.4629,-8.463,-8.4631,-8.456,-8.4557,-8.4554,-8.4551,-8.466,-8.4666,-8.4671,0,0,0,0,0,0,0,0,0,0,0,0,0,-8.4239,-8.4244,-8.4517,-8.4518,-8.452,-8.4628,-8.463,-8.4631,-8.4561,-8.4557,-8.4553,-8.4549,-8.4658,-8.4665,-8.4672,0,0,0,0,0,0,0,0,0,0,0,0,0,-8.4356,-8.4246,-8.4517,-8.4498,-8.4497,-8.4628,-8.463,-8.4632,-8.4562,-8.4557,-8.4552,-8.4547,-8.4655,-8.4664,-8.4673,-8.4827,0,0,-8.47,-8.4704,0,0,0,0,0,0,0,0,-8.4349,-8.4366,-8.4499,-8.4499,-8.4499,-8.4576,-8.4572,-8.4697,-8.4563,-8.4537,-8.4551,-8.4545,-8.4635,-8.4646,-8.4677,-8.4832,-8.4837,-8.4701,-8.4707,-8.471,-8.4713,0,0,0,0,0,0,0,-8.4341,-8.4361,-8.4561,-8.4501,-8.4501,-8.4482,-8.4494,-8.4595,-8.4612,-8.4539,-8.4534,-8.4549,-8.4634,-8.4669,-8.4679,-8.4839,-8.4701,-8.4709,-8.4714,-8.4718,-8.5125,-8.513,0,0,0,0,0,0,-8.4335,-8.4354,-8.4557,-8.4564,-8.4411,-8.4491,-8.4504,-8.4556,-8.4611,-8.4615,-8.4553,-8.4545,-8.4656,-8.4669,-8.4683,-8.4865,-8.471,-8.4719,-8.4724,-8.5119,-8.5126,-8.5132,0,0,0,0,0,0,-8.433,-8.4354,-8.4553,-8.4458,-8.4482,-8.4502,-8.456,-8.4561,-8.4595,-8.4622,-8.4624,-8.4585,-8.4653,-8.467,-8.4792,-8.4868,-8.4723,-8.4731,-8.5113,-8.5121,-8.5129,-8.5232,0,0,0,0,0,0,-8.4322,-8.4352,-8.4412,-8.446,-8.4488,-8.4661,-8.4565,-8.4566,-8.4611,-8.4602,-8.4652,-8.4656,-8.465,-8.4779,-8.4801,-8.4878,-8.4738,-8.5106,-8.5117,-8.5126,-8.5222,-8.5243,-8.5261,0,0,0,0,0,-8.4312,-8.4435,-8.4415,-8.444,-8.4562,-8.4666,-8.4681,-8.4673,-8.4618,-8.4677,-8.4694,-8.4654,-8.4858,-8.4792,-8.4816,-8.4897,-8.5101,-8.5114,-8.5126,-8.5213,-8.5239,-8.526,0,0,0,0,0,0,-8.4393,-8.4441,-8.4419,-8.4562,-8.4611,-8.4654,-8.4727,-8.4701,-8.4764,-8.4753,-8.4739,-8.4751,-8.4878,-8.49,-8.4827,-8.5049,-8.497,-8.4988,-8.5029,-8.5053,-8.5072,-8.5062,-8.4745,0,0,0,0,0,-8.4428,-8.4509,-8.4547,-8.4669,-8.4695,-8.4708,-8.4752,-8.4743,-8.4792,-8.4811,-8.4837,-8.4885,-8.4959,-8.5008,-8.5078,-8.5227,-8.5235,-8.5294,-8.5314,-8.5329,-8.5343,-8.5422,-8.5448,-8.5172,-8.5172,-8.5172,0,0,-8.4499,-8.4536,-8.4588,-8.4686,-8.4723,-8.4806,-8.4725,-8.4816,-8.4877,-8.4824,-8.494,-8.4962,-8.5014,-8.515,-8.5211,-8.5172,-8.5422,-8.5345,-8.5357,-8.5363,-8.5437,-8.5463,-8.5486,-8.518,-8.5179,-8.5178,0,0,-8.4671,-8.4709,-8.4814,-8.4854,-8.4911,-8.4919,-8.4945,-8.4993,-8.5005,-8.5123,-8.5085,-8.5157,-8.5286,-8.5324,-8.5361,-8.5552,-8.5517,-8.5576,-8.5674,-8.5751,-8.5773,-8.5792,-8.5857,-8.5881,-8.559,-8.5591,-8.5591,0,-8.4752,-8.4877,-8.4871,-8.4966,-8.5009,-8.4969,-8.5075,-8.5113,-8.5189,-8.522,-8.5177,-8.5338,-8.5371,-8.5514,-8.5561,-8.5593,-8.562,-8.5567,-8.5771,-8.579,-8.5808,-8.5869,-8.5894,-8.5597,-8.5596,-8.5596,-8.5595,0,-8.4973,-8.506,-8.5139,-8.5215,-8.5269,-8.5368,-8.5376,-8.5431,-8.5418,-8.543,-8.555,-8.5589,-8.5665,-8.57,-8.5687,-8.5842,-8.5816,-8.5773,-8.5692,-8.584,-8.5898,-8.5922,-8.5606,-8.5604,-8.5602,-8.56,0,0,-8.5193,-8.5269,-8.5297,-8.5331,-8.5393,-8.546,-8.5558,-8.5636,-8.5681,-8.5737,-8.5817,-8.5929,-8.589,-8.5931,-8.5924,-8.5992,-8.6137,-8.594,-8.5941,-8.5972,-8.6307,-8.6336,-8.6363,-8.6117,-8.6122,-8.6125,-8.6301,0,-8.5367,-8.5539,-8.5538,-8.5696,-8.5775,-8.574,-8.5826,-8.5872,-8.5888,-8.5957,-8.5974,-8.6052,-8.5996,-8.6021,-8.6087,-8.6106,-8.6204,-8.6094,-8.6188,-8.6192,-8.6171,-8.6394,-8.6425,-8.6588,-8.6324,-8.6328,-8.6331,0,-8.559,-8.5655,-8.5822,-8.5872,-8.5906,-8.5982,-8.6053,-8.6121,-8.6173,-8.618,-8.6228,-8.621,-8.6309,-8.6231,-8.6365,-8.629,-8.633,-8.6345,-8.6351,-8.6356,-8.6266,-8.64,-8.6641,-8.6664,-8.6367,-8.6364,-8.6361,0,-8.573,-8.5859,-8.5975,-8.6006,-8.607,-8.6124,-8.6153,-8.62,-8.6247,-8.631,-8.6339,-8.6412,-8.6451,-8.6507,-8.6509,-8.6453,-8.6644,-8.6566,-8.6649,-8.6649,-8.6687,-8.6683,-8.6933,-8.6721,-8.672,-8.672,-8.6719,0,-8.592,-8.6023,-8.6039,-8.611,-8.6224,-8.6222,-8.6335,-8.6358,-8.6402,-8.6475,-8.6451,-8.652,-8.6521,-8.6592,-8.6595,-8.6704,-8.6723,-8.6729,-8.6728,-8.6729,-8.6727,-8.675,-8.6737,-8.6726,-8.6725,-8.6724,-8.6722,0,-8.6093,-8.6109,-8.6233,-8.6284,-8.6299,-8.638,-8.6423,-8.649,-8.6505,-8.6599,-8.6621,-8.6644,-8.6726,-8.6736,-8.6831,-8.6833,-8.6964,-8.6953,-8.6946,-8.6943,-8.7024,-8.7015,-8.7293,-8.7328,-8.7097,-8.7099,-8.7101,0,-8.6211,-8.6289,-8.635,-8.6399,-8.6431,-8.6509,-8.6558,-8.6561,-8.6611,-8.6678,-8.6737,-8.6818,-8.6881,-8.7015,-8.7039,-8.7112,-8.7099,-8.7192,-8.711,-8.7108,-8.7096,-8.709,-8.7096,-8.7206,-8.7209,-8.7211,-8.7213,0,-8.6418,-8.6423,-8.6494,-8.6569,-8.6628,-8.6686,-8.6741,-8.6782,-8.6792,-8.685,-8.6935,-8.6985,-8.7084,-8.7164,-8.7236,-8.7264,-8.7239,-8.724,-8.7262,-8.7261,-8.7252,-8.7254,-8.6985,-8.7231,-8.723,-8.7228,-8.7227,-8.7226,-8.6564,-8.6632,-8.6685,-8.6765,-8.6808,-8.6861,-8.6926,-8.6951,-8.7022,-8.7103,-8.7101,-8.7194,-8.7245,-8.7341,-8.7375,-8.7446,-8.7415,-8.7449,-8.7456,-8.7463,-8.747,-8.7246,-8.746,-8.746,-8.7459,-8.7459,-8.7458,0,-8.6766,-8.68,-8.6874,-8.6953,-8.7016,-8.6992,-8.7052,-8.7105,-8.7188,-8.7239,-8.7304,-8.7401,-8.7479,-8.7511,-8.7587,-8.7638,-8.7629,-8.7657,-8.7651,-8.7657,-8.7495,-8.7466,-8.7664,-8.7664,-8.7664,-8.7664,-8.7664,-8.7664,-8.6879,-8.6991,-8.7003,-8.7136,-8.7168,-8.726,-8.7296,-8.7344,-8.7385,-8.7495,-8.756,-8.7582,-8.7625,-8.7704,-8.7774,-8.7782,-8.7809,-8.7842,-8.7844,-8.769,-8.7669,-8.7649,-8.7622,-8.7849,-8.7849,-8.8,-8.8001,-8.8003]},{"header":{"parameterUnit":"m.s-1","parameterCategory":1,"la1":30.2991,"la2":30.254,"lo1":-89.0895,"lo2":-89.0444,"dy":0.0017,"dx":0.0017,"nx":28,"ny":28,"refTime":"2024-04-27T09:00:00:Z","depth":0,"parameterNumber":3,"parameterNumberName":"V-component_of_WINDS"},"data":[0,0,0,0,0,0,0,0,0,0,0,0,0,0,0,0,0,0,0,0,0,0,0,0,0,0,0,0,0,0,0,0,0,0,0,0,0,0,0,0,0,0,0,0,0,0,0,0,0,0,0,0,0,0,0,0,0,0,4.0623,4.0623,0,4.0662,4.0662,4.0662,4.0655,4.0654,4.0653,4.0653,4.0689,4.069,4.0692,0,0,0,0,0,0,0,0,0,0,0,0,0,4.0541,4.0542,4.0623,4.0623,4.0624,4.0662,4.0662,4.0663,4.0655,4.0654,4.0653,4.0652,4.0688,4.069,4.0692,0,0,0,0,0,0,0,0,0,0,0,0,0,4.0578,4.0543,4.0623,4.0625,4.0625,4.0661,4.0662,4.0663,4.0655,4.0654,4.0653,4.0652,4.0688,4.069,4.0692,4.0728,0,0,4.07,4.0701,0,0,0,0,0,0,0,0,4.0576,4.0581,4.0624,4.0625,4.0625,4.0652,4.0646,4.0685,4.0655,4.0644,4.0653,4.0651,4.0677,4.0681,4.069,4.073,4.0731,4.07,4.0702,4.0703,4.0703,0,0,0,0,0,0,0,4.0573,4.0579,4.0638,4.0625,4.0625,4.0623,4.0627,4.0654,4.0666,4.0645,4.0644,4.0649,4.0677,4.0688,4.0691,4.0732,4.07,4.0702,4.0704,4.0705,4.0805,4.0806,0,0,0,0,0,0,4.057,4.0577,4.0637,4.0639,4.0597,4.0625,4.063,4.0645,4.0665,4.0668,4.065,4.0648,4.0684,4.0688,4.0692,4.0736,4.0703,4.0705,4.0706,4.0804,4.0805,4.0807,0,0,0,0,0,0,4.0568,4.0576,4.0635,4.0608,4.0615,4.0628,4.0645,4.0646,4.0656,4.0669,4.0671,4.0658,4.0683,4.0689,4.072,4.0737,4.0706,4.0708,4.0802,4.0804,4.0806,4.0824,0,0,0,0,0,0,4.0566,4.0575,4.0589,4.0608,4.0617,4.0663,4.0646,4.0647,4.0661,4.0659,4.0678,4.068,4.0683,4.0716,4.0722,4.074,4.071,4.0801,4.0803,4.0805,4.0822,4.0826,4.083,0,0,0,0,0,4.0563,4.0591,4.059,4.0597,4.0635,4.0664,4.0669,4.0673,4.0662,4.0676,4.0685,4.0679,4.0735,4.072,4.0726,4.0745,4.08,4.0803,4.0805,4.082,4.0826,4.083,0,0,0,0,0,0,4.0571,4.0594,4.0592,4.0627,4.0644,4.0663,4.068,4.0678,4.0697,4.0695,4.0698,4.0703,4.0735,4.0743,4.0726,4.0782,4.0766,4.077,4.0775,4.078,4.0784,4.0781,4.0712,0,0,0,0,0,4.0578,4.0601,4.0618,4.0648,4.0657,4.0667,4.068,4.0682,4.0699,4.0706,4.0717,4.0733,4.0754,4.0767,4.0788,4.0824,4.0828,4.084,4.0844,4.0847,4.0851,4.0872,4.0877,4.0816,4.0816,4.0816,0,0,4.059,4.0605,4.0619,4.065,4.0663,4.0686,4.0673,4.0697,4.0715,4.0709,4.074,4.0749,4.0767,4.0801,4.0817,4.0809,4.0869,4.0851,4.0853,4.0855,4.0875,4.0881,4.0886,4.0818,4.0817,4.0817,0,0,4.0625,4.0638,4.0665,4.068,4.0701,4.0708,4.0714,4.0734,4.074,4.0772,4.0768,4.0789,4.0825,4.0838,4.085,4.0893,4.0888,4.0899,4.092,4.094,4.0945,4.0949,4.0965,4.0971,4.0903,4.0903,4.0903,0,4.0637,4.0673,4.0679,4.0705,4.0719,4.0717,4.0744,4.0757,4.0783,4.0793,4.0784,4.0831,4.0843,4.0881,4.0892,4.0901,4.0909,4.0897,4.0944,4.0949,4.0953,4.0968,4.0973,4.0904,4.0904,4.0904,4.0904,0,4.0687,4.0712,4.0731,4.0759,4.0775,4.0801,4.0811,4.0827,4.0829,4.0837,4.0869,4.0884,4.0908,4.0918,4.0918,4.0956,4.0951,4.0943,4.0927,4.096,4.0974,4.0979,4.0906,4.0905,4.0905,4.0905,0,0,4.0725,4.0758,4.0765,4.0778,4.0803,4.0822,4.0849,4.0874,4.0887,4.0906,4.0928,4.0961,4.0955,4.0968,4.097,4.0988,4.1022,4.0979,4.0979,4.0986,4.1066,4.1071,4.1078,4.102,4.1021,4.1022,4.1064,0,4.0762,4.0811,4.0819,4.0861,4.0885,4.0885,4.0908,4.0926,4.0935,4.0956,4.0965,4.0988,4.0978,4.0986,4.1004,4.1014,4.1038,4.1012,4.104,4.1041,4.1035,4.1085,4.109,4.1129,4.107,4.1071,4.1071,0,4.0811,4.0834,4.0879,4.0902,4.0912,4.0933,4.0958,4.0978,4.0998,4.1004,4.102,4.1021,4.1049,4.1033,4.1071,4.1053,4.1066,4.1073,4.1074,4.1076,4.1058,4.1088,4.1141,4.1147,4.108,4.1079,4.1079,0,4.0835,4.0876,4.0909,4.0921,4.0948,4.0963,4.0975,4.0995,4.101,4.1031,4.1041,4.1065,4.1078,4.1096,4.1104,4.1091,4.1142,4.1126,4.1147,4.1147,4.1156,4.1155,4.1212,4.1165,4.1165,4.1165,4.1165,0,4.0875,4.0903,4.0921,4.0941,4.0972,4.0981,4.1012,4.1023,4.1041,4.1063,4.1065,4.1085,4.1094,4.1116,4.1122,4.1153,4.1159,4.1164,4.1165,4.1164,4.1163,4.1171,4.1168,4.1167,4.1166,4.1166,4.1166,0,4.0907,4.092,4.0956,4.098,4.0987,4.1009,4.103,4.1049,4.106,4.1088,4.1095,4.111,4.1136,4.1146,4.1177,4.1182,4.1218,4.1217,4.1211,4.1211,4.1231,4.1229,4.1295,4.1304,4.1252,4.1252,4.1252,0,4.0931,4.0953,4.0981,4.0997,4.101,4.1035,4.1051,4.1061,4.1078,4.1104,4.1121,4.1147,4.1169,4.1211,4.1224,4.1249,4.1248,4.1269,4.1251,4.125,4.1248,4.1247,4.1249,4.1272,4.1273,4.1273,4.1274,0,4.0973,4.0979,4.1003,4.1031,4.1051,4.1072,4.1093,4.1106,4.1119,4.1138,4.1166,4.1183,4.1216,4.1243,4.1268,4.128,4.1279,4.128,4.1286,4.1284,4.128,4.1282,4.122,4.1277,4.1277,4.1277,4.1277,4.1276,4.1002,4.1022,4.1045,4.1073,4.109,4.111,4.113,4.1144,4.1168,4.1197,4.1201,4.1231,4.1252,4.1287,4.13,4.1323,4.1317,4.1326,4.1328,4.133,4.1331,4.1277,4.1328,4.1328,4.1328,4.1327,4.1327,0,4.1044,4.106,4.1085,4.1116,4.1137,4.1137,4.1161,4.1178,4.1205,4.1226,4.1248,4.1281,4.1307,4.1323,4.135,4.1365,4.1366,4.1372,4.137,4.1373,4.1335,4.1327,4.1371,4.1371,4.1371,4.1371,4.1371,4.1371,4.1069,4.1103,4.1112,4.1155,4.1171,4.1202,4.1215,4.1234,4.125,4.1287,4.131,4.1321,4.134,4.1368,4.1392,4.1397,4.1406,4.1413,4.1416,4.138,4.1376,4.1371,4.1364,4.1415,4.1415,4.1452,4.1453,4.1453]}]]